Date String (YYYY-MM-DD hh:mm:ss) UTC,Instrument flags,absolute air pressure of the measurement (hPa),sample flow rate (lpm),inlet stack bypass flow (lpm),air temperature of the measurement (°C),ambient temperature measured by the external sensor (°C),aerosol sample conditioner tube jacket temperature (°C),OPC LED temperature (°C),internal box temperature (°C),relative humidity of the measurement (%),span deviation,mass concentration of particles derived from Lorenz-Mie calculation of OPC scattering (μg/m³),mass concentration of particles derived from Lorenz-Mie calculation of OPC scattering (μg/m³),mass concentration of particles derived from Lorenz-Mie calculation of OPC scattering (μg/m³)
DateTimeUTC,F1_M11,P_M11,Q1_M11,Q2_M11,T1_M11,T2_M11,T3_M11,T4_M11,T5_M11,U1_M11,ZSPAN_M11,X2_M11,X0_M11,X1_M11
2023-08-11 03:00:00,SystemResetWarning,0829.2,4.99,000.00,029.2,027.8,000.0,037.6,031.0,17.9,0001.6,0005.74,0015.49,0004.98
2023-08-11 03:01:00,SystemResetWarning,0829.3,5.00,000.00,029.2,027.8,000.0,037.6,031.0,17.6,0001.5,0005.76,0015.03,0004.99
2023-08-11 03:02:00,SystemResetWarning,0829.3,4.99,000.00,029.2,026.2,000.0,037.5,030.7,17.5,0000.6,0005.76,0014.73,0004.98
2023-08-11 03:03:00,SystemResetWarning,0829.4,5.01,000.00,029.2,025.6,000.0,037.4,030.6,17.4,0000.0,0005.74,0013.02,0004.98
2023-08-11 03:04:00,SystemResetWarning,0829.4,5.02,000.00,029.1,025.7,000.0,037.4,030.4,17.6,0000.0,0005.70,0012.43,0004.97
2023-08-11 03:05:00,SystemResetWarning,0829.3,5.00,000.00,029.0,026.0,000.0,037.5,030.4,17.8,0000.0,0005.70,0013.22,0004.95
2023-08-11 03:06:00,SystemResetWarning,0829.3,5.00,000.00,029.0,026.4,000.0,037.5,030.6,17.9,0000.0,0005.70,0013.69,0004.94
2023-08-11 03:07:00,SystemResetWarning,0829.4,4.99,000.00,029.1,026.8,000.0,037.5,030.7,18.1,0000.0,0005.67,0013.50,0004.93
2023-08-11 03:08:00,SystemResetWarning,0829.5,4.99,000.00,029.1,027.1,000.0,037.5,030.7,18.0,0000.0,0005.63,0013.25,0004.91
2023-08-11 03:09:00,SystemResetWarning,0829.5,5.00,000.00,029.1,027.4,000.0,037.6,030.8,18.0,0000.0,0005.59,0012.83,0004.90
2023-08-11 03:10:00,SystemResetWarning,0829.6,5.01,000.00,029.1,027.6,000.0,037.6,030.9,18.1,0000.0,0005.52,0013.42,0004.86
2023-08-11 03:11:00,SystemResetWarning,0829.6,5.01,000.00,029.2,027.8,000.0,037.6,030.9,18.1,0000.0,0005.47,0013.00,0004.83
2023-08-11 03:12:00,SystemResetWarning,0829.6,4.99,000.00,029.2,028.0,000.0,037.6,031.0,18.2,0000.0,0005.41,0012.43,0004.78
2023-08-11 03:13:00,SystemResetWarning,0829.6,4.98,000.00,029.3,027.5,000.0,037.6,031.0,17.9,0000.0,0005.34,0012.55,0004.74
2023-08-11 03:14:00,SystemResetWarning,0829.6,5.00,000.00,029.2,025.5,000.0,037.5,030.7,17.8,0000.0,0005.29,0013.13,0004.70
2023-08-11 03:15:00,SystemResetWarning,0829.5,5.00,000.00,029.1,024.5,000.0,037.4,030.4,17.9,0000.0,0005.27,0012.85,0004.66
2023-08-11 03:16:00,SystemResetWarning,0829.5,5.01,000.00,029.1,024.7,000.0,037.3,030.3,17.9,0000.0,0005.22,0012.36,0004.61
2023-08-11 03:17:00,SystemResetWarning,0829.5,5.00,000.00,028.9,025.1,000.0,037.4,030.2,18.3,0000.0,0005.13,0011.98,0004.56
2023-08-11 03:18:00,SystemResetWarning,0829.6,5.00,000.00,028.9,025.6,000.0,037.4,030.3,19.1,0000.0,0005.10,0012.55,0004.51
2023-08-11 03:19:00,SystemResetWarning,0829.6,5.00,000.00,028.9,026.0,000.0,037.4,030.4,19.1,0000.0,0005.11,0012.64,0004.47
2023-08-11 03:20:00,SystemResetWarning,0829.6,4.99,000.00,028.9,026.4,000.0,037.4,030.5,19.1,0000.0,0005.09,0012.75,0004.44
2023-08-11 03:21:00,SystemResetWarning,0829.6,5.00,000.00,028.9,026.8,000.0,037.5,030.6,19.3,0000.0,0005.05,0011.81,0004.41
2023-08-11 03:22:00,SystemResetWarning,0829.6,5.00,000.00,029.0,027.1,000.0,037.5,030.7,19.2,0000.0,0005.04,0011.40,0004.38
2023-08-11 03:23:00,SystemResetWarning,0829.7,4.99,000.00,029.0,027.3,000.0,037.5,030.7,19.3,0000.0,0005.01,0011.48,0004.36
2023-08-11 03:24:00,SystemResetWarning,0829.7,5.00,000.00,029.0,027.6,000.0,037.5,030.8,19.0,0000.0,0004.98,0011.35,0004.35
2023-08-11 03:25:00,SystemResetWarning,0829.7,5.00,000.00,029.1,027.7,000.0,037.5,030.8,18.9,0000.0,0004.98,0010.63,0004.33
2023-08-11 03:26:00,SystemResetWarning,0829.7,5.01,000.00,029.1,027.9,000.0,037.6,030.9,18.6,0000.0,0004.90,0010.68,0004.31
2023-08-11 03:27:00,SystemResetWarning,0829.7,5.00,000.00,029.2,028.0,000.0,037.6,030.9,18.6,0000.0,0004.88,0010.43,0004.30
2023-08-11 03:28:00,SystemResetWarning,0829.7,5.00,000.00,029.2,028.2,000.0,037.6,031.0,18.6,0000.0,0004.91,0010.20,0004.30
2023-08-11 03:29:00,SystemResetWarning,0829.7,4.99,000.00,029.3,027.6,000.0,037.6,030.9,18.5,0000.0,0004.84,0010.24,0004.27
2023-08-11 03:30:00,SystemResetWarning,0829.7,4.99,000.00,029.2,025.9,000.0,037.5,030.6,18.6,0000.0,0004.77,0010.35,0004.23
2023-08-11 03:31:00,SystemResetWarning,0829.7,5.00,000.00,029.1,025.5,000.0,037.4,030.5,18.6,0000.0,0004.76,0010.59,0004.20
2023-08-11 03:32:00,SystemResetWarning,0829.7,5.01,000.00,029.1,025.7,000.0,037.4,030.4,18.5,0000.0,0004.74,0010.72,0004.16
2023-08-11 03:33:00,SystemResetWarning,0829.7,5.00,000.00,029.0,026.0,000.0,037.4,030.4,18.6,0000.0,0004.73,0011.12,0004.13
2023-08-11 03:34:00,SystemResetWarning,0829.7,4.99,000.00,029.0,026.4,000.0,037.5,030.5,18.7,0000.0,0004.72,0011.35,0004.09
2023-08-11 03:35:00,SystemResetWarning,0829.6,5.00,000.00,029.0,026.8,000.0,037.5,030.6,18.6,0000.0,0004.73,0011.40,0004.06
2023-08-11 03:36:00,SystemResetWarning,0829.6,5.02,000.00,029.0,027.1,000.0,037.5,030.7,18.5,0000.0,0004.70,0011.43,0004.04
2023-08-11 03:37:00,SystemResetWarning,0829.6,5.01,000.00,029.1,027.3,000.0,037.5,030.8,18.6,0000.0,0004.70,0011.09,0004.02
2023-08-11 03:38:00,SystemResetWarning,0829.6,5.00,000.00,029.1,027.6,000.0,037.6,030.8,18.6,0000.0,0004.67,0010.93,0004.01
2023-08-11 03:39:00,SystemResetWarning,0829.6,5.00,000.00,029.1,027.7,000.0,037.6,030.9,18.6,0000.0,0004.63,0011.07,0003.99
2023-08-11 03:40:00,SystemResetWarning,0829.6,5.00,000.00,029.2,027.9,000.0,037.6,030.9,18.6,0000.0,0004.63,0010.86,0004.00
2023-08-11 03:41:00,SystemResetWarning,0829.6,4.99,000.00,029.2,028.0,000.0,037.6,031.0,18.5,0000.0,0004.66,0010.61,0004.00
2023-08-11 03:42:00,SystemResetWarning,0829.6,5.00,000.00,029.3,028.0,000.0,037.6,031.0,18.5,0000.0,0004.68,0010.09,0004.02
2023-08-11 03:43:00,SystemResetWarning,0829.6,5.00,000.00,029.3,026.3,000.0,037.5,030.8,18.3,0000.0,0004.70,0009.89,0004.03
2023-08-11 03:44:00,SystemResetWarning,0829.5,5.00,000.00,029.2,025.5,000.0,037.4,030.6,18.3,0000.0,0004.66,0009.95,0004.04
2023-08-11 03:45:00,SystemResetWarning,0829.5,5.01,000.00,029.1,025.6,000.0,037.4,030.5,18.4,0000.0,0004.67,0010.10,0004.06
2023-08-11 03:46:00,SystemResetWarning,0829.5,5.01,000.00,029.0,025.9,000.0,037.5,030.4,18.7,0000.0,0004.68,0010.99,0004.09
2023-08-11 03:47:00,SystemResetWarning,0829.5,4.99,000.00,029.0,026.3,000.0,037.5,030.5,18.7,0000.0,0004.68,0011.90,0004.10
2023-08-11 03:48:00,SystemResetWarning,0829.6,5.00,000.00,029.0,026.6,000.0,037.5,030.6,18.7,0000.0,0004.68,0012.28,0004.11
2023-08-11 03:49:00,SystemResetWarning,0829.6,5.00,000.00,029.1,027.0,000.0,037.5,030.7,18.8,0000.0,0004.68,0012.13,0004.10
2023-08-11 03:50:00,SystemResetWarning,0829.6,5.01,000.00,029.1,027.3,000.0,037.6,030.8,18.8,0000.0,0004.69,0012.64,0004.10
2023-08-11 03:51:00,SystemResetWarning,0829.6,5.00,000.00,029.1,027.5,000.0,037.6,030.8,18.8,0000.0,0004.71,0012.19,0004.10
2023-08-11 03:52:00,SystemResetWarning,0829.6,5.00,000.00,029.2,027.7,000.0,037.6,030.9,18.8,0000.0,0004.72,0012.25,0004.11
2023-08-11 03:53:00,SystemResetWarning,0829.6,5.00,000.00,029.2,027.8,000.0,037.6,030.9,18.8,0000.0,0004.70,0012.68,0004.12
2023-08-11 03:54:00,SystemResetWarning,0829.6,4.99,000.00,029.2,028.0,000.0,037.7,031.0,18.8,0000.0,0004.68,0012.78,0004.12
2023-08-11 03:55:00,SystemResetWarning,0829.6,5.00,000.00,029.3,028.1,000.0,037.7,031.0,18.8,0000.0,0004.71,0012.19,0004.13
2023-08-11 03:56:00,SystemResetWarning,0829.6,4.99,000.00,029.3,026.9,000.0,037.6,030.9,18.7,0000.0,0004.69,0011.76,0004.12
2023-08-11 03:57:00,SystemResetWarning,0829.5,5.01,000.00,029.2,025.5,000.0,037.5,030.7,18.8,0000.0,0004.66,0010.89,0004.11
2023-08-11 03:58:00,SystemResetWarning,0829.5,5.01,000.00,029.2,025.5,000.0,037.4,030.5,18.8,0000.0,0004.65,0009.73,0004.12
2023-08-11 03:59:00,SystemResetWarning,0829.5,5.01,000.00,029.1,025.7,000.0,037.5,030.4,18.9,0000.0,0004.65,0009.46,0004.11
